Location: Aragoneses
(41.0275°N, 4.3847°W)
Time: 14:39:20
(UTC+00:00)

BlueWalker 3 - Pass Details

Date: 22 February 2026
Orbit: 451 x 457 km, 53.2° (Epoch: 14 March)

Event Time Altitude Azimuth Distance (km) Brightness Sun altitude
Rises 06:22:41 0° 214° (SSW) 2,460 5.2 -8.2°
Reaches altitude 10° 06:24:52 10° 207° (SSW) 1,590 4.3 -7.8°
Maximum altitude 06:28:16 42° 135° (SE) 660 3.0 -7.2°
Drops below altitude 10° 06:31:41 10° 63° (ENE) 1,597 5.4 -6.5°
Sets 06:33:54 0° 57° (ENE) 2,472 6.3 -6.1°
